Flag for U.S.A. Weather past 2 weeks in Fort Lauderdale, Florida, U.S.A.

Now
84 °F

Passing clouds.


Feels Like: 92 °F
Forecast: 82 / 89 °F
Wind: 10 mph from East

Location: Fort Lauderdale / Hollywood International Airport

Current Time: Jul 4, 2015 at 10:47:38 PM

Latest Report: Jul 4, 2015 at 9:53 PM


Visibility: 10 mi

Pressure: 30.10 "Hg

Humidity: 74%

Dew point: 75 °F

Location of Fort LauderdaleLocation

Historic Weather in Fort Lauderdale — Graph

°F

Fort Lauderdale temperature yesterday

Maximum temperature yesterday: 90 °F (at 12:53 PM)
Minimum temperature yesterday: 82 °F (at 5:53 AM)
Average temperature yesterday: 85 °F

Past Weeks' High & Low Weather Summary

 TemperatureHumidityPressure
High93 °F (Jun 29, 1:53 PM)94% (Jun 28, 2:53 PM)30.16 "Hg (Jun 28, 2:53 PM)
Low75 °F (Jun 29, 6:01 PM)49% (Jul 2, 2:53 PM)30.02 "Hg (Jun 27, 4:53 AM)
Average85 °F73%30.09 "Hg
* Reported Jun 19 8:53 PM — Jul 4 8:53 PM, Fort Lauderdale, Weather by CustomWeather, © 2015

Note: Actual official high and low records may vary slightly from our data, if they occured in-between our weather recording intervals... More about our weather records

Advertising

Fort Lauderdale weather history for previous 24 hours

 ConditionsComfort  
Time TempWeatherWind HumidityBarometerVisibility
8:53 PM
Sat, Jul 4
85 °FScattered clouds.9 mph72%30.09 "Hg10 mi
7:53 PM85 °FPartly sunny.10 mph70%30.09 "Hg10 mi
6:53 PM86 °FPartly sunny.10 mph67%30.07 "Hg10 mi
5:53 PM88 °FPartly sunny.13 mph63%30.08 "Hg10 mi
4:53 PM89 °FPartly sunny.14 mph63%30.07 "Hg10 mi
3:53 PM89 °FBroken clouds.15 mph65%30.09 "Hg10 mi
2:53 PM90 °FBroken clouds.13 mph63%30.10 "Hg10 mi
1:53 PM89 °FSunny.13 mph65%30.10 "Hg10 mi
12:53 PM88 °FScattered clouds.13 mph63%30.12 "Hg10 mi
12:00 PM81 °FThunderstorms. Broken clouds.9 mph79%30.13 "Hg10 mi
10:53 AM86 °FBroken clouds.14 mph72%30.12 "Hg10 mi
9:53 AM87 °FBroken clouds.12 mph69%30.11 "Hg10 mi
8:53 AM84 °FPassing clouds.9 mph74%30.10 "Hg10 mi
7:53 AM84 °FPassing clouds.8 mph77%30.09 "Hg10 mi
6:53 AM83 °FPassing clouds.7 mph79%30.07 "Hg10 mi
5:53 AM83 °FPassing clouds.7 mph79%30.06 "Hg10 mi
4:53 AM81 °FPassing clouds.6 mph82%30.06 "Hg10 mi
3:53 AM79 °FPassing clouds.No wind88%30.06 "Hg10 mi
2:53 AM79 °FPassing clouds.3 mph88%30.06 "Hg10 mi
1:53 AM82 °FThunderstorms. Partly cloudy.7 mph77%30.08 "Hg10 mi
12:53 AM84 °FPartly cloudy.13 mph80%30.10 "Hg10 mi
11:53 PM
Fri, Jul 3
84 °FPartly cloudy.12 mph77%30.10 "Hg10 mi
10:53 PM84 °FPartly cloudy.12 mph74%30.11 "Hg10 mi
Weather by CustomWeather, © 2015

See weather overviewHow to use our weather pages